Showing default

EMISAR, 68427

Orbit data source: Space-Track

EMISAR, 68427 is a Romanian payload satellite in SSO that was launched on Mon, 30 Mar 2026 UTC via an FALCON 9 launch vehicle from the Air Force Western Test Range (AFWTR). Payload-class satellites include a variety of spacecraft equipped with specific instruments for various scientific and technological missions. These include communications satellites like Starlink; space stations such as the ISS; scientific satellites like the Hubble; Earth observation satellites from companies like Planet Labs, Umbra, and HawkEye 360; GPS; miniature CubeSats for education and research; and military/defense satellites.

Loading next visibility...
Identifier
68427, 2026-067M
Orbit
SSO
Country
Flag of RORO / ROM
Related business
Manufacturer
RISERO
Mission
Operational Commercial Communications
Bus & Motor
CUBESAT 1U, Unknown motor
Mass
~1 kg wet, ~1 kg dry
Launch date (UTC)
2026-03-30 (6 months ago)
Launch vehicle
FALCON 9
Launch site
Air Force Western Test Range (AFWTR)
Object type
Payload
Rocket body
Debris
Shape & HBR
Box, 0.1 m
Radar Cross Section
0.015 m², Medium (>0.1 m² and < 1m²)

Expand to show TLE details & history
Last TLE update: 10 hours ago

TLE from 10 hours ago
0 EMISAR
1 68427U 26067M   26263.62305686  .00006850  00000-0  31420-3 0  9995
2 68427  97.4648 221.1102 0002839  56.1799 303.9706 15.20752391 26444
Epoch: 2026-09-20T14:57Z
TLE epoch observation values (Epoch: 2026-09-20T14:57:12.112Z)
Latitude
-0.00007°
Longitude
-2.70484°
Altitude
505.568 km
Speed
7.612 km/s
True Right ascension
14h 44m 26s
True Declination
0° 00' 00"
Sunlit
Object was in daylight at epoch
Visualization orbit readout
Latitude
Unknown
Longitude
Unknown
Altitude
Unknown
Speed
Unknown
Apparent Right ascension
Unknown
Apparent Declination
Unknown
Sunlit
N/A
Visualization observer readout
Local Sidereal Time
18:01:24
Azimuth
Unknown
Elevation
Unknown
Doppler factor
Unknown
Orbital elements
Apogee altitude
502.49 km
Perigee altitude
498.584 km
Semi-major axis
6,878.674 km
Eccentricity
0.00028
Inclination
97.4648°
RAAN
221.1102°
Arg. of periapsis
56.1799°
True anomaly
303.94361°
Mean anomaly
303.9706°
Eccentric anomaly
303.95711°
Mean motion
3.8044 °/min
Orbital period
94.63 mins
BSTAR
0.0003142
Loading maneuver chart data...
Computing Atmospheric mass density...
Loading historical data...
Loading historical data...
Loading historical data...
Loading historical data...
Loading historical data...
Loading historical data...
Loading historical data...

Documentation

Showing up to 5 results
|